This is the latest recevied weather packets stored in our database for station/object LU8AQL-WX. If no packets are shown the sender has not sent any weather packets the latest 10 day(s).
| Time | Temp. | Humidity | Pressure | Rain* | Wind** | Luminosity | Snow |
|---|---|---|---|---|---|---|---|
| 1777493898 | 22.78° C | 37% | 1011 hPa | 0 mm | - | - | - |
| 1777493297 | 22.78° C | 37% | 1011 hPa | 0 mm | - | - | - |
| 1777492696 | 22.22° C | 37% | 1011 hPa | 0 mm | - | - | - |
| 1777492096 | 22.22° C | 37% | 1011 hPa | 0 mm | - | - | - |
| 1777491495 | 22.22° C | 37% | 1011 hPa | 0 mm | - | - | - |
| 1777490894 | 22.22° C | 38% | 1011 hPa | 0 mm | - | - | - |
| 1777490293 | 22.22° C | 38% | 1011 hPa | 0 mm | - | - | - |
| 1777489692 | 22.22° C | 38% | 1011 hPa | 0 mm | - | - | - |
| 1777489091 | 22.22° C | 37% | 1011 hPa | 0 mm | - | - | - |
| 1777488490 | 22.22° C | 37% | 1011 hPa | 0 mm | - | - | - |
| 1777487889 | 22.22° C | 38% | 1011 hPa | 0 mm | - | - | - |
| 1777487288 | 22.22° C | 38% | 1010 hPa | 0 mm | - | - | - |
| 1777486687 | 22.22° C | 39% | 1010 hPa | 0 mm | - | - | - |
| 1777486086 | 22.22° C | 40% | 1010 hPa | 0 mm | - | - | - |
| 1777485485 | 21.67° C | 43% | 1010 hPa | 0 mm | - | - | - |
| 1777484885 | 21.67° C | 43% | 1010 hPa | 0 mm | - | - | - |
| 1777484283 | 21.67° C | 43% | 1010 hPa | 0 mm | - | - | - |
| 1777483683 | 21.67° C | 44% | 1010 hPa | 0 mm | - | - | - |
| 1777483082 | 21.67° C | 44% | 1010 hPa | 0 mm | - | - | - |
| 1777482481 | 20.56° C | 48% | 1010 hPa | 0 mm | - | - | - |
| 1777481880 | 20.56° C | 48% | 1010 hPa | 0 mm | - | - | - |
| 1777481279 | 20° C | 50% | 1010 hPa | 0 mm | - | - | - |
| 1777480678 | 20° C | 52% | 1010 hPa | 0 mm | - | - | - |
| 1777480077 | 20.56° C | 55% | 1010 hPa | 0 mm | - | - | - |
| 1777479476 | 20° C | 57% | 1010 hPa | 0 mm | - | - | - |
* Rain latest hour (hover to see other rain measurements)
** Current wind speed in m/s (hover to see current wind gust speed)